Temperature
19 19 19 20 20 20 20 20 20 20 20 20 20 20 20 20 20 20 20 20 20 20 20 20 20 20 20 19 19 19 19 19 19 19 19 19 19 19 19 19 19 18 18
20 20 20 20 20 20 20 20 20 20 20 20 20 20 20 20 20 20 20 20 20 20 20 20 20 20 19 19 19 19 19 19 19 19 19 19 19 19 19 19 19 18 18
20 20 20 20 20 20 20 20 20 20 20 20 20 20 20 20 20 20 20 20 20 20 20 20 20 19 19 19 19 19 19 19 19 19 19 19 19 19 19 19 19 19 18
21 20 20 20 20 20 20 20 20 20 20 20 20 20 20 20 20 20 20 20 20 20 20 20 19 19 19 19 19 19 19 19 19 19 19 19 19 19 19 19 19 19 18
21 21 20 20 20 20 20 20 20 20 20 19 19 20 20 20 20 20 20 20 20 20 20 20 19 19 19 19 19 19 19 19 19 19 19 19 19 19 19 19 19 19 18
21 21 20 20 20 20 20 20 20 19 19 19 19 19 20 20 20 20 20 20 20 20 20 19 19 19 19 19 19 19 19 19 19 19 19 19 19 19 19 19 19 19 19
21 21 20 20 20 20 20 20 20 19 19 19 19 19 19 19 19 19 19 19 19 19 19 19 19 19 19 19 19 18 18 18 19 18 18 19 19 19 19 19 19 19 19
22 21 21 20 20 20 20 20 20 19 19 19 19 19 19 19 19 19 19 19 19 19 19 19 19 19 19 19 18 18 18 18 18 18 18 19 19 19 19 19 19 19 19
22 21 21 21 20 20 20 20 19 19 19 19 19 19 19 19 19 19 19 19 19 19 19 19 19 19 19 19 19 18 18 18 18 18 18 18 19 19 19 19 19 19 18
21 21 21 21 21 20 20 20 19 19 19 19 19 19 19 19 19 19 19 19 19 19 19 19 19 19 19 19 19 18 18 18 18 18 18 18 18 18 18 19 19 18 18
21 21 21 21 21 20 20 20 19 19 19 19 19 19 19 19 19 19 19 19 19 19 19 19 19 19 19 19 19 18 18 18 18 18 18 18 18 18 18 18 18 18 18
21 21 21 21 21 20 20 20 19 19 19 19 19 19 19 19 19 19 18 18 19 19 19 19 19 19 19 19 18 18 18 18 18 18 17 17 18 18 18 18 18 18 18
22 22 21 21 21 21 20 20 19 19 19 19 19 19 19 18 18 18 18 19 19 19 19 19 18 18 18 18 18 18 18 18 18 17 17 17 18 18 18 18 18 18 18
22 22 22 21 21 21 21 20 20 19 19 19 19 19 19 18 18 19 18 19 19 19 19 19 18 18 18 18 18 18 18 18 18 18 18 18 18 18 18 18 18 18 18
22 22 22 22 21 21 21 20 20 20 20 19 19 19 19 19 19 18 18 18 19 19 19 18 18 18 18 18 18 18 18 18 18 18 17 17 18 18 18 18 18 18 18
22 22 22 22 22 21 21 21 21 20 20 19 19 19 19 18 18 18 18 18 18 19 19 19 18 18 18 18 18 18 18 18 18 18 17 17 18 18 18 18 18 18 18
21 22 22 22 22 21 21 21 21 20 20 20 20 19 19 19 18 18 18 18 18 18 18 18 18 18 18 18 18 18 18 18 18 18 17 17 17 18 18 18 18 17 18
21 21 21 21 21 21 21 21 21 21 20 20 20 19 19 19 18 18 18 18 18 18 18 18 18 18 18 18 18 18 18 18 18 18 17 17 17 17 18 18 18 17 17
20 20 21 21 21 21 21 21 21 21 20 20 20 19 19 19 18 18 19 19 19 18 18 18 18 18 18 18 18 18 18 18 18 17 17 17 17 17 17 17 18 18 17
19 20 20 20 20 21 21 21 20 20 20 20 20 19 19 19 19 19 19 19 18 18 18 18 18 18 18 18 18 18 18 18 17 17 17 17 17 17 17 17 17 17 17
18 19 19 20 20 20 20 20 20 20 20 20 20 19 19 19 19 19 19 19 18 18 18 18 18 18 18 18 18 17 17 17 17 17 17 17 17 17 17 17 17 17 17
17 18 18 19 19 20 20 20 20 20 20 20 20 19 19 19 19 19 18 18 18 18 18 18 18 18 18 18 17 17 17 17 17 17 17 17 17 17 17 17 17 17 17
16 16 17 18 18 19 19 20 20 19 19 19 19 19 19 18 18 18 18 18 18 18 18 18 18 18 17 17 17 17 17 17 17 17 17 17 17 17 17 17 17 17 17
15 15 16 16 17 18 19 19 19 19 19 19 19 18 18 18 18 18 18 18 18 18 18 17 17 17 17 17 17 17 17 17 17 17 17 17 17 17 17 17 17 17 17
14 15 15 15 16 17 17 18 18 19 19 19 18 18 17 17 17 17 17 17 17 17 17 17 17 17 17 17 16 16 16 16 16 16 16 17 17 17 17 17 17 17 17
14 14 14 14 15 15 16 16 17 17 18 18 18 17 17 17 16 16 16 16 16 16 16 16 16 16 16 16 16 16 16 16 16 16 16 16 16 17 17 17 17 17 17
Wind_Speed
8 11 17 16 16 16 16 16 16 15 15 14 13 13 13 13 13 12 12 12 12 11 11 10 10 9 9 9 9 9 9 10 10 10 11 11 11 11 11 11 10 8 9
12 16 18 17 17 16 16 16 15 15 14 14 14 13 13 12 12 11 11 11 11 10 10 9 9 9 9 9 9 9 9 9 9 10 10 11 11 12 12 12 11 9 10
15 16 18 18 17 17 16 15 15 14 14 14 14 13 12 12 11 11 10 10 10 9 9 8 8 8 8 8 8 8 8 8 8 9 9 9 10 11 11 11 11 10 10
17 17 17 18 17 16 16 15 14 14 14 13 13 12 12 11 11 10 10 10 9 8 8 8 7 7 8 8 8 7 7 8 8 8 7 7 8 10 11 10 10 10 10
16 16 17 19 17 16 15 14 14 14 14 13 13 12 11 11 10 10 10 9 9 8 8 7 6 6 7 7 7 6 6 7 8 8 8 8 8 9 9 9 9 9 9
14 16 18 18 17 15 14 14 14 14 14 14 13 12 11 11 11 10 10 9 9 8 7 6 6 6 6 7 6 5 5 6 8 9 8 7 7 7 8 8 7 7 8
14 15 17 18 16 15 14 14 14 14 14 14 13 12 11 11 11 10 10 9 8 8 7 6 6 6 6 6 6 5 4 6 8 9 7 6 6 7 7 6 5 5 6
16 15 17 18 17 15 14 14 14 14 14 14 13 12 11 11 11 11 10 9 8 7 7 6 6 7 7 6 5 4 4 4 8 8 7 7 7 7 6 5 4 4 5
14 14 14 16 16 16 15 14 14 14 14 14 13 13 12 12 12 11 10 9 8 7 6 6 6 6 6 6 5 3 3 4 7 8 7 6 7 7 6 5 4 4 4
12 12 11 14 15 14 14 15 15 15 15 15 14 14 13 13 13 12 11 10 8 7 6 6 6 6 5 4 3 2 2 5 6 7 7 6 7 7 6 5 4 4 4
12 11 11 11 13 14 14 15 15 15 16 15 15 15 14 12 13 13 12 11 10 8 7 6 6 5 4 3 3 2 2 5 7 8 7 7 7 6 6 5 4 4 3
15 14 13 13 12 13 14 14 13 14 15 14 14 14 13 12 13 12 13 13 11 10 8 7 7 6 5 4 5 3 2 3 9 8 8 8 7 6 6 5 4 3 3
18 16 15 14 12 12 9 11 11 11 12 13 15 14 13 12 11 11 10 11 11 10 8 7 7 7 6 5 5 3 1 5 10 9 9 8 7 6 6 5 4 3 2
17 18 17 16 14 13 11 9 10 9 9 10 14 15 13 8 7 8 8 9 10 9 8 7 6 8 8 8 7 5 4 6 9 9 9 8 7 6 6 6 5 4 3
13 16 18 18 17 14 11 9 9 9 10 13 14 16 15 8 6 7 7 9 10 10 8 7 6 6 7 8 7 6 7 9 10 10 8 8 7 6 6 6 6 5 4
3 8 12 16 17 15 13 12 10 10 12 13 13 16 17 13 9 7 6 7 9 11 11 9 7 5 5 4 4 7 9 11 10 10 9 8 7 6 6 6 7 7 6
5 2 4 11 13 15 14 14 10 11 12 10 12 16 17 15 13 10 8 8 9 13 11 7 6 5 4 4 5 5 6 8 9 9 9 8 7 7 6 6 7 7 7
10 8 5 3 7 11 12 12 10 10 11 10 12 14 16 17 16 12 10 10 12 12 7 5 4 4 4 4 4 3 3 4 6 8 9 9 8 7 7 7 7 7 6
12 11 10 7 3 5 9 9 9 9 10 9 11 11 14 16 16 11 9 9 11 7 6 6 4 4 4 3 3 2 2 3 3 5 6 9 10 9 8 8 8 7 7
12 12 12 10 9 6 3 5 5 7 8 7 7 9 12 12 14 11 6 8 8 7 6 5 5 3 3 4 3 2 1 2 2 3 5 8 10 11 11 9 9 9 8
13 13 13 13 11 7 3 2 4 7 7 6 6 7 8 9 11 9 7 7 7 7 7 7 5 5 3 3 3 2 3 2 3 3 3 4 6 11 11 10 10 9 9
14 13 11 11 11 9 5 3 3 4 4 5 4 4 5 6 7 7 8 7 7 6 7 6 5 4 2 3 4 2 1 4 3 2 2 5 6 7 8 11 11 10 10
14 13 12 11 11 11 9 4 1 1 1 1 2 2 2 3 4 5 6 6 6 6 7 6 6 6 4 2 3 4 4 4 3 3 2 2 4 5 5 8 11 13 12
12 12 11 11 11 11 10 6 2 3 4 5 5 4 4 3 2 3 4 5 6 5 6 6 5 4 5 4 2 2 3 4 3 2 3 2 2 4 6 5 8 13 15
12 11 11 11 11 11 11 8 3 0 2 3 5 6 5 4 3 2 2 3 4 4 5 5 5 5 4 4 3 3 2 2 2 3 3 3 2 2 3 4 5 9 15
10 10 10 10 10 10 10 10 7 3 3 5 5 6 5 4 4 4 3 3 4 4 4 5 5 5 5 5 4 4 4 3 4 4 5 4 3 3 2 3 4 6 12
Wind_Direction
156 165 151 143 135 131 130 129 127 124 119 115 110 106 102 100 97 95 94 93 91 89 88 90 93 95 96 97 97 96 94 92 88 84 79 76 71 67 69 83 84 83 91
153 158 151 145 139 134 132 131 129 126 123 120 117 112 109 107 104 102 98 96 93 91 89 90 94 101 104 104 103 99 92 87 85 82 79 77 75 73 74 79 81 82 89
148 155 151 148 143 139 136 134 131 129 126 124 121 118 116 115 112 109 105 101 98 94 91 90 93 102 107 109 106 100 91 84 82 83 84 81 78 76 77 77 79 79 85
149 152 153 151 146 143 140 138 136 134 131 129 127 125 123 120 118 116 113 110 106 100 95 92 95 103 109 112 110 102 91 83 83 88 92 88 81 81 79 77 79 78 80
147 151 156 153 150 147 145 142 141 139 138 137 134 133 132 129 125 122 121 119 114 108 102 98 100 110 117 121 119 111 95 83 92 101 106 99 90 88 84 80 79 81 81
147 151 157 156 154 152 151 149 147 146 145 143 141 140 140 138 133 128 126 123 119 115 110 108 109 117 128 133 132 125 106 94 102 117 119 115 107 99 91 84 81 84 84
147 152 159 159 160 160 159 157 155 154 151 149 148 148 148 146 142 137 133 129 124 122 119 118 120 125 134 140 141 133 115 103 116 127 131 128 118 105 95 90 89 92 91
151 156 162 165 166 167 167 166 163 161 159 157 157 157 157 154 151 146 141 138 134 131 129 128 131 134 140 144 144 138 115 102 134 140 139 131 122 112 103 95 94 101 102
155 159 163 168 172 175 175 174 173 170 168 167 166 166 164 162 158 155 151 149 147 147 145 144 146 149 149 149 148 143 110 83 133 145 140 137 133 124 118 111 103 104 111
159 163 166 170 173 177 179 181 180 179 177 175 174 173 172 170 166 164 162 162 163 165 166 167 168 171 170 167 166 164 84 81 135 151 140 144 139 132 127 120 111 108 114
167 172 173 174 177 178 180 186 186 184 183 182 181 180 177 174 173 172 175 176 178 180 185 190 193 198 205 220 239 257 63 93 131 138 147 153 149 144 136 129 121 113 113
178 183 183 183 182 180 185 186 185 185 185 184 184 184 179 179 182 183 188 189 188 192 199 209 216 223 233 257 276 296 41 131 143 149 165 168 167 161 150 142 132 125 122
184 185 188 188 185 184 187 180 184 183 182 185 187 187 183 185 193 198 196 200 199 201 206 221 236 245 249 257 273 284 314 150 155 162 176 178 178 175 167 162 159 158 159
185 191 190 190 188 190 187 183 184 184 185 189 193 192 188 191 200 199 195 199 200 204 207 218 230 248 257 257 258 251 201 166 163 167 181 183 181 182 179 178 178 180 188
190 195 193 192 190 189 185 184 186 189 192 195 196 198 195 193 196 193 196 199 207 211 211 214 219 232 247 255 248 211 176 169 171 175 182 184 182 186 188 189 187 187 192
204 204 196 194 191 186 186 187 187 191 194 196 198 200 199 196 193 190 195 199 211 216 216 214 216 218 223 211 185 156 155 165 176 178 179 184 187 189 193 197 195 193 197
5 337 227 204 195 190 190 189 187 191 193 197 201 202 200 198 195 194 199 203 210 216 217 214 215 207 188 176 158 149 154 167 176 181 180 186 192 198 202 200 194 194 200
17 4 345 241 212 204 198 193 189 191 192 198 200 202 204 204 199 196 202 205 206 207 207 191 177 165 173 163 159 170 167 165 177 185 184 191 192 197 203 195 186 190 192
21 14 8 360 334 234 214 203 197 193 194 197 197 199 205 207 200 190 194 196 194 188 187 187 164 151 156 163 176 182 195 193 186 184 188 195 195 195 197 196 188 186 186
22 16 12 6 359 335 260 212 207 204 200 197 195 198 199 201 195 184 180 180 175 167 169 170 151 139 145 157 139 113 247 252 230 193 195 189 195 196 198 198 191 188 188
21 16 11 6 359 355 334 245 213 209 201 196 196 188 188 187 182 173 170 168 165 162 164 154 140 135 134 135 101 42 349 329 273 237 195 176 192 197 196 199 197 192 190
13 9 6 359 350 346 326 274 240 223 208 190 182 168 169 172 175 176 164 162 160 152 150 151 143 140 145 139 131 116 337 330 316 304 210 188 197 193 194 202 202 201 195
9 4 360 352 348 343 334 312 279 152 112 138 159 170 150 155 170 165 168 161 163 161 165 164 157 153 165 178 153 149 164 221 287 318 308 228 192 189 196 200 202 204 202
1 358 355 353 352 349 345 337 277 199 191 187 171 169 141 130 155 160 164 165 164 165 165 170 164 160 157 177 188 181 165 159 167 292 319 321 236 211 208 203 200 202 202
355 355 354 354 357 355 354 351 344 170 167 148 142 141 134 126 120 121 158 161 160 165 172 173 166 168 167 171 178 169 162 167 164 170 258 302 324 270 230 214 196 195 198
353 355 355 357 359 359 2 6 12 39 91 126 136 145 146 138 134 141 148 157 161 168 176 175 172 176 181 177 182 179 172 172 188 181 210 238 262 286 269 232 211 199 194
Height
1534 1537 1538 1540 1541 1542 1543 1544 1545 1545 1546 1547 1548 1548 1549 1549 1550 1550 1551 1551 1552 1552 1553 1553 1554 1554 1555 1556 1557 1557 1557 1558 1558 1557 1557 1557 1557 1557 1556 1556 1555 1555 1555
1533 1536 1539 1540 1542 1543 1544 1544 1545 1546 1547 1548 1548 1549 1550 1550 1551 1551 1552 1552 1552 1553 1553 1554 1554 1555 1556 1557 1557 1558 1558 1559 1559 1559 1559 1559 1558 1558 1558 1557 1557 1556 1556
1533 1536 1539 1541 1542 1543 1544 1545 1546 1547 1547 1548 1549 1550 1550 1551 1552 1552 1552 1553 1553 1553 1553 1554 1554 1555 1556 1557 1558 1558 1559 1559 1560 1560 1560 1560 1560 1560 1559 1559 1559 1558 1558
1534 1536 1539 1541 1542 1544 1545 1546 1546 1547 1548 1549 1549 1550 1551 1552 1553 1553 1553 1553 1553 1553 1554 1554 1554 1555 1556 1557 1558 1559 1559 1560 1560 1561 1561 1561 1561 1561 1561 1560 1560 1559 1559
1534 1537 1539 1541 1543 1544 1545 1546 1547 1547 1548 1549 1550 1551 1552 1553 1553 1554 1554 1554 1554 1554 1554 1554 1555 1555 1556 1557 1558 1559 1560 1561 1561 1562 1562 1562 1562 1562 1562 1562 1561 1561 1560
1535 1537 1539 1541 1543 1544 1545 1546 1547 1548 1548 1549 1550 1551 1552 1553 1553 1554 1554 1554 1554 1554 1554 1554 1555 1555 1556 1557 1559 1559 1560 1561 1562 1562 1562 1563 1563 1563 1563 1563 1562 1562 1561
1536 1538 1540 1542 1543 1544 1545 1546 1547 1548 1549 1550 1550 1551 1552 1553 1553 1554 1554 1554 1554 1554 1555 1555 1555 1556 1557 1558 1559 1560 1561 1562 1562 1563 1563 1563 1563 1563 1563 1563 1563 1563 1562
1536 1539 1540 1542 1543 1544 1545 1546 1547 1548 1549 1550 1551 1551 1552 1553 1553 1553 1554 1554 1554 1555 1555 1555 1556 1556 1557 1558 1559 1560 1561 1562 1563 1563 1564 1564 1564 1564 1564 1564 1563 1563 1563
1537 1539 1540 1542 1543 1544 1545 1546 1546 1547 1548 1549 1550 1551 1552 1552 1553 1553 1554 1554 1554 1555 1555 1556 1557 1557 1558 1559 1560 1561 1562 1562 1563 1564 1564 1564 1564 1564 1564 1564 1563 1563 1563
1537 1538 1540 1541 1542 1543 1544 1545 1546 1547 1547 1548 1549 1550 1551 1552 1553 1553 1554 1554 1554 1555 1555 1556 1557 1558 1559 1559 1560 1562 1562 1563 1563 1564 1564 1564 1564 1564 1563 1563 1563 1563 1563
1536 1538 1539 1540 1541 1542 1543 1544 1545 1546 1547 1548 1549 1550 1550 1551 1552 1553 1553 1554 1554 1555 1555 1556 1557 1558 1559 1560 1561 1562 1563 1563 1564 1564 1564 1564 1564 1563 1563 1563 1563 1563 1564
1534 1535 1537 1538 1539 1540 1541 1542 1543 1544 1545 1546 1547 1548 1549 1550 1551 1552 1553 1553 1554 1554 1555 1556 1557 1559 1560 1560 1562 1563 1563 1563 1564 1564 1564 1563 1563 1562 1562 1562 1563 1563 1564
1531 1532 1534 1535 1537 1538 1539 1540 1541 1542 1543 1545 1546 1547 1548 1549 1550 1551 1552 1552 1553 1554 1555 1556 1558 1559 1560 1561 1562 1562 1563 1563 1563 1563 1563 1562 1561 1561 1561 1561 1562 1562 1563
1529 1530 1531 1533 1534 1535 1536 1538 1539 1540 1541 1542 1544 1545 1546 1548 1549 1550 1551 1552 1553 1554 1555 1556 1558 1559 1560 1561 1561 1562 1562 1563 1563 1563 1562 1561 1560 1560 1559 1560 1560 1561 1562
1528 1528 1529 1529 1530 1532 1534 1535 1536 1538 1539 1540 1541 1543 1544 1546 1547 1549 1550 1552 1553 1554 1555 1556 1557 1558 1559 1560 1560 1561 1561 1562 1563 1562 1562 1561 1560 1559 1559 1559 1559 1560 1561
1528 1527 1528 1528 1528 1529 1530 1532 1533 1535 1536 1537 1539 1540 1542 1544 1546 1547 1549 1551 1552 1554 1555 1556 1557 1558 1559 1559 1560 1561 1561 1562 1562 1562 1562 1561 1560 1559 1559 1558 1559 1559 1560
1527 1527 1527 1527 1527 1527 1528 1529 1530 1532 1533 1534 1536 1537 1539 1541 1543 1545 1547 1549 1551 1552 1554 1555 1556 1557 1558 1559 1560 1560 1561 1561 1561 1561 1561 1561 1560 1560 1559 1558 1558 1559 1559
1524 1525 1525 1525 1526 1526 1526 1526 1527 1528 1530 1531 1533 1534 1536 1538 1540 1542 1544 1546 1549 1550 1552 1553 1554 1555 1557 1558 1559 1559 1560 1560 1560 1560 1560 1560 1560 1560 1559 1559 1558 1558 1559
1523 1522 1522 1522 1522 1522 1523 1524 1524 1525 1526 1528 1530 1531 1533 1536 1538 1539 1541 1544 1546 1548 1549 1551 1553 1554 1555 1556 1557 1558 1558 1559 1559 1559 1559 1559 1559 1560 1559 1559 1559 1558 1558
1523 1521 1519 1519 1519 1519 1520 1521 1522 1523 1523 1525 1526 1528 1530 1533 1535 1536 1538 1541 1543 1545 1547 1549 1550 1552 1553 1554 1555 1556 1557 1557 1558 1558 1558 1558 1558 1559 1559 1559 1559 1558 1558
1521 1519 1517 1516 1515 1515 1516 1516 1518 1518 1519 1521 1523 1525 1527 1529 1531 1533 1535 1537 1539 1541 1543 1545 1547 1549 1550 1552 1553 1554 1555 1555 1555 1556 1556 1556 1557 1557 1558 1558 1558 1558 1558
1520 1518 1515 1514 1513 1512 1512 1512 1513 1515 1516 1517 1520 1522 1524 1526 1528 1529 1531 1533 1535 1537 1540 1542 1543 1545 1547 1548 1550 1551 1552 1553 1553 1553 1554 1554 1555 1556 1556 1557 1557 1558 1558
1520 1517 1514 1512 1510 1509 1508 1508 1509 1510 1512 1513 1514 1516 1518 1521 1524 1526 1527 1529 1531 1533 1535 1537 1539 1541 1543 1544 1546 1547 1548 1548 1549 1550 1550 1552 1552 1553 1554 1555 1555 1556 1557
1521 1517 1514 1511 1508 1506 1504 1504 1504 1505 1506 1507 1508 1511 1512 1515 1519 1522 1524 1525 1527 1529 1531 1532 1534 1536 1538 1540 1541 1543 1544 1545 1546 1547 1548 1549 1550 1551 1551 1552 1553 1554 1554
1521 1517 1514 1510 1507 1504 1502 1500 1499 1500 1501 1502 1504 1506 1507 1510 1512 1516 1519 1521 1523 1525 1527 1528 1530 1532 1533 1534 1536 1538 1539 1541 1542 1544 1545 1546 1547 1548 1549 1549 1550 1551 1552
1522 1518 1514 1510 1506 1503 1500 1498 1497 1497 1497 1498 1500 1502 1503 1506 1508 1510 1514 1517 1518 1521 1523 1525 1526 1527 1529 1530 1531 1533 1535 1536 1538 1539 1541 1542 1544 1545 1546 1546 1547 1548 1549